Hourly Weather Roundup
Issued by NWS Central Illinois

Home | Current Version | Previous Version | Text Only | Print | Product List | Glossary On
Versions: 1 2 3 4 5 6 7 8 9 10 11 12 13 14 15 16 17 18 19 20 21 22 23 24 25 26 27 28 29 30 31 32 33 34 35 36 37 38 39 40 41 42 43 44 45 46 47 48 49 50
068
NZUS43 KILX 232010
HWRILX

Area Weather Roundup
National Weather Service Lincoln IL
300 PM CDT SUN APR 23 2017

NOTE:  "FAIR" indicates few or no clouds below 12,000 feet, with
       no sigificant weather and/or obstructions to visibility.


CITY           SKY/WX    TMP DP  RH WIND       PRES   REMARKS
Bloomington    SUNNY     71  27  19 NE13      30.05F
Champaign      SUNNY     72  28  19 NE13      30.04S
Danville       SUNNY     69  30  22 NE13G18   30.02S
Decatur        SUNNY     70  36  28 NE18      30.03F
Effingham      SUNNY     71  33  24 N9G18     30.02F
Flora          SUNNY     70  33  25 N17G23    29.98F
Galesburg      SUNNY     70  33  25 N6        30.06F
Jacksonville   SUNNY     70  29  22 N5        30.05F
Lacon          SUNNY     69  33  25 NW9       30.05F
Lawrenceville  SUNNY     71  34  25 N20       29.96F
Litchfield     SUNNY     69  33  26 NE12      30.04S
$$


CITY           SKY/WX    TMP DP  RH WIND       PRES   REMARKS
Lincoln        SUNNY     72  32  23 NE12      30.04F
Macomb         SUNNY     70  28  20 NE5       30.08F
Mattoon        SUNNY     70  29  21 NE17G25   30.01F
Mt Carmel AP   SUNNY     69  33  26 N14G24    29.95F
Olney-Noble AP SUNNY     69  33  26 NE15G22   29.98F
Paris AP       SUNNY     72  27  18 NE15G26   30.03S
Peoria         SUNNY     70  28  21 NE8       30.06F
Pontiac        SUNNY     71  25  17 NE8       30.05F
Rantoul        SUNNY     71  26  18 NE10G18   30.04F
Robinson       SUNNY     71  31  22 N16G24    29.98F
Springfield    SUNNY     72  32  23 E10G18    30.04F
Taylorville    SUNNY     71  28  19 NE13G20   30.04S
$$

...REGIONAL REPORTS...


CITY           SKY/WX    TMP DP  RH WIND       PRES   REMARKS
Chicago O`Hare SUNNY     72  27  18 NE8       30.04F
Kankakee       SUNNY     71  22  16 NE8       30.05F
Moline         SUNNY     71  31  22 CALM      30.06F
Mount Sterling SUNNY     69  29  23 N10       30.06F
Mount Vernon   SUNNY     69  35  28 NE12G25   29.97F
Pittsfield     SUNNY     70  27  20 NE10G17   30.08S
Quincy         SUNNY     70  28  21 NE7       30.06F
Rockford       MOSUNNY   72  36  26 VRB6      30.06F
$$


CITY           SKY/WX    TMP DP  RH WIND       PRES   REMARKS
Burlington     SUNNY     70  31  23 VRB3      30.07F
Cedar Rapids   SUNNY     70  30  22 W9        30.05F
Des Moines     MOSUNNY   73  33  23 S13G20    30.05F
Kirksville     SUNNY     71  29  21 VRB3      30.09F
Ottumwa        SUNNY     70  29  21 S6        30.07F
St Louis       SUNNY     72  32  23 N8        30.04F
$$


CITY           SKY/WX    TMP DP  RH WIND       PRES   REMARKS
Terre Haute    SUNNY     71  32  23 NE15G21   29.99F
Evansville     SUNNY     71  39  31 NE13G28   29.92F
Indianapolis   MOSUNNY   69  35  28 NE14G22   29.99F
Lafayette      SUNNY     66  37  34 E9        30.04F
Madison        MOSUNNY   70  33  25 W8        30.03F
Milwaukee      MOSUNNY   47  39  74 NE20G31   30.10R
$$






USA.gov is the U.S. government's official web portal to all federal, state and local government web resources and services.